Waukegan National Airport (UGN)


Airport Diagram
Current Weather/Forecast (VFR Conditions)
METAR KUGN 260155Z AUTO 00000KT 10SM CLR 25/15 A2993 RMK AO2 SLP120 T02500150
TAF

All Charts
General
Chart Name Download
AIRPORT DIAGRAM
TAKEOFF MINIMUMS
ALTERNATE MINIMUMS

Departures
Chart Name Download
JORJO FIVE (RNAV)
JORJO FIVE (RNAV), CONT.1
MONKZ FIVE (RNAV)
MONKZ FIVE (RNAV), CONT.1

Arrivals
Chart Name Download
GOPAC TWO (RNAV)

Approaches
Chart Name Download
ILS OR LOC RWY 23
RNAV (GPS) RWY 05
RNAV (GPS) RWY 23